Welcome to Crazy Orc, l'antre du jeu de rôles à Lyon. Please login or sign up.

29 Septembre 2023 à 06:07:48

Login with username, password and session length

Crazy Orc, l'antre du jeu de rôles à Lyon - Centre de statistiques

Statistiques générales

Total des membres:
710
Total des messages:
97766
Total des sujets:
4217
Total des catégories:
4
Membres en ligne:
16
Connexions simultanées:
808 - 21 Janvier 2020 à 20:55:59
En ligne aujourd'hui:
0
Total des pages vues:
36650111
Moyenne des inscriptions par jour:
0.26
Moyenne des messages par jour:
23.41
Moyenne des sujets par jour:
1.06
Total des sections:
40
Dernier membre:
MJ White Davor
Moyenne d'utilisateurs connectés par jour:
50.57
Statistiques des sexes:
Ne pas afficher: 342
Masculin: 309
Féminin: 59
Pages vues en moyenne par jour:
6057.87

Top 10 des posteurs

ManuDevil
6978
GroumpH
5098
nunch
3857
LeDupontesque
3068
jules
3026
Mandy
2883
Scratchy
2766
MAO
2493
snake
1947
Le0
1878

Top lanceurs de sujets

nunch
600
Morithil
398
ManuDevil
292
GroumpH
246
Scratchy
132
MAO
110
LeDupontesque
106
jules
99
snake
92
CCCP
86

Le plus de temps en ligne

Mandy
133 j 19 h 59 m
GroumpH
112 j 9 h 16 m
CCCP
88 j 6 h 9 m
Nukeflow
73 j 8 h 19 m
ManuDevil
69 j 12 m
Felipe
61 j 12 h 19 m
dao
56 j 17 h 58 m
nunch
49 j 1 h 47 m
Rh
42 j 23 h 32 m
Patate
42 j 15 h 38 m

Les utilisateurs les plus aimés

ManuDevil
48
Arkana31
30
LeDupontesque
18
Patate
11
Morithil
10
MJulien
6
Lightblaste
5
CCCP
5
apoxx
4
Bulwaid
4

Historique du forum (basé sur l'heure interne du forum)

Résumé annuel Nouveaux sujets Nouveaux messages Nouveaux membres Connexions simultanées Pages vues
* 2023 143 897 94 182 2617586
Septembre 2023 19 173 16 138 355033
Août 2023 8 42 7 130 236673
Juillet 2023 6 39 4 140 269774
Juin 2023 23 109 10 159 303581
Mai 2023 23 124 16 182 262587
Avril 2023 19 159 11 174 284480
Mars 2023 13 86 6 155 330966
Février 2023 13 62 5 165 274947
Janvier 2023 19 103 19 148 299545
* 2022 183 1154 96 261 3778792
Décembre 2022 9 37 1 161 306381
Novembre 2022 16 103 6 261 350274
Octobre 2022 11 120 17 208 290108
Septembre 2022 17 115 6 258 357415
Août 2022 15 108 9 147 318817
Juillet 2022 13 69 4 208 308045
Juin 2022 14 76 4 62 333112
Mai 2022 16 118 8 91 339244
Avril 2022 18 133 12 61 254691
2022-04-01 0 6 0 49 15444
2022-04-02 0 2 1 49 8967
2022-04-03 4 5 0 38 8148
2022-04-04 1 9 1 43 10158
2022-04-05 0 3 1 41 13979
2022-04-06 0 8 0 36 9247
2022-04-07 1 5 0 43 12333
2022-04-08 0 4 0 43 10696
2022-04-09 1 5 2 41 14859
2022-04-10 1 7 3 41 17217
2022-04-11 2 5 0 46 14030
2022-04-12 0 1 0 34 9483
2022-04-13 2 4 0 35 6925
2022-04-14 0 7 0 48 6203
2022-04-15 0 7 0 49 6464
2022-04-16 0 5 0 35 4327
2022-04-17 0 0 0 36 4954
2022-04-18 0 1 0 40 4048
2022-04-19 0 9 0 44 5344
2022-04-20 0 0 0 48 4153
2022-04-21 0 3 0 55 8132
2022-04-22 2 7 1 52 9959
2022-04-23 0 3 0 49 7655
2022-04-24 1 1 1 61 6931
2022-04-25 2 6 0 44 7260
2022-04-26 0 2 0 44 5849
2022-04-27 0 2 0 55 5585
2022-04-28 0 5 1 47 6009
2022-04-29 1 9 0 52 5398
2022-04-30 0 2 1 43 4934
Mars 2022 15 123 8 65 281935
Février 2022 17 84 9 58 314588
Janvier 2022 22 68 12 70 324182
* 2021 129 756 53 338 4376522
Décembre 2021 8 37 0 129 661064
Novembre 2021 13 99 4 153 262314
Octobre 2021 20 208 15 159 298103
Septembre 2021 24 171 10 280 285455
2021-09-01 0 3 2 36 8640
2021-09-02 4 5 0 37 5800
2021-09-03 0 10 1 36 5156
2021-09-04 0 2 0 36 6972
2021-09-05 0 1 0 43 4981
2021-09-06 1 11 0 41 6661
2021-09-07 1 12 0 46 10031
2021-09-08 1 4 0 41 12326
2021-09-09 0 5 0 49 26895
2021-09-10 0 6 1 59 9918
2021-09-11 0 3 0 44 5933
2021-09-12 1 6 1 39 4295
2021-09-13 1 6 0 44 7745
2021-09-14 3 10 0 47 10087
2021-09-15 3 18 1 280 10394
2021-09-16 1 7 1 161 10361
2021-09-17 0 4 0 190 12432
2021-09-18 0 2 0 188 15978
2021-09-19 0 2 0 253 13663
2021-09-20 0 1 0 200 15111
2021-09-21 1 3 1 125 8590
2021-09-22 2 6 0 160 8539
2021-09-23 0 0 1 147 9848
2021-09-24 1 4 0 66 9262
2021-09-25 1 6 0 105 6269
2021-09-26 0 7 1 111 9599
2021-09-27 1 7 0 103 8348
2021-09-28 2 15 0 77 7864
2021-09-29 0 5 0 118 7060
2021-09-30 0 0 0 102 6697
Août 2021 11 33 7 73 231609
Juillet 2021 6 8 2 81 305173
Juin 2021 17 31 2 135 311168
Mai 2021 3 31 4 268 597777
Avril 2021 10 51 6 287 308355
Mars 2021 7 24 1 308 444900
Février 2021 5 29 2 338 223056
Janvier 2021 5 34 0 322 447548
2021-01-01 0 0 0 65 8853
2021-01-02 0 0 0 61 7510
2021-01-03 0 0 0 56 8223
2021-01-04 2 2 0 67 8142
2021-01-05 0 3 0 56 8281
2021-01-06 0 4 0 55 5830
2021-01-07 0 2 0 55 4092
2021-01-08 0 2 0 53 3871
2021-01-09 0 0 0 70 5919
2021-01-10 0 0 0 78 9200
2021-01-11 1 2 0 66 7730
2021-01-12 0 1 0 71 7978
2021-01-13 0 1 0 64 8287
2021-01-14 0 2 0 80 7890
2021-01-15 0 0 0 85 9193
2021-01-16 0 0 0 83 10085
2021-01-17 0 3 0 81 9818
2021-01-18 0 5 0 82 10941
2021-01-19 1 1 0 86 9009
2021-01-20 0 2 0 322 13536
2021-01-21 0 1 0 81 24497
2021-01-22 0 0 0 79 141457
2021-01-23 0 0 0 85 10393
2021-01-24 0 0 0 84 11242
2021-01-25 1 1 0 80 10151
2021-01-26 0 0 0 93 10012
2021-01-27 0 1 0 88 10831
2021-01-28 0 0 0 87 11541
2021-01-29 0 1 0 81 9358
2021-01-30 0 0 0 72 23925
2021-01-31 0 0 0 67 19753
* 2020 206 1716 105 808 4713463
Décembre 2020 6 38 2 320 310487
2020-12-01 1 1 0 121 10809
2020-12-02 0 3 0 116 10099
2020-12-03 0 2 0 114 11876
2020-12-04 0 0 0 94 10791
2020-12-05 0 3 0 82 9574
2020-12-06 1 10 0 78 10653
2020-12-07 0 4 0 68 10998
2020-12-08 0 0 0 66 32260
2020-12-09 0 1 0 67 7435
2020-12-10 0 1 1 60 7610
2020-12-11 0 0 0 60 7643
2020-12-12 0 1 0 63 7412
2020-12-13 0 1 0 50 7185
2020-12-14 1 2 0 46 5821
2020-12-15 0 1 0 44 8427
2020-12-16 0 0 0 320 13083
2020-12-17 0 0 0 74 9703
2020-12-18 0 0 0 71 8569
2020-12-19 0 0 0 63 7390
2020-12-20 0 3 0 65 6819
2020-12-21 1 1 0 59 6108
2020-12-22 0 0 0 70 10438
2020-12-23 0 1 0 73 9331
2020-12-24 0 0 0 72 10558
2020-12-25 0 0 0 77 9826
2020-12-26 0 0 0 72 10399
2020-12-27 1 1 1 88 10008
2020-12-28 0 1 0 88 8712
2020-12-29 1 1 0 105 10795
2020-12-30 0 0 0 79 10368
2020-12-31 0 0 0 69 9787
Novembre 2020 12 97 3 352 464426
Octobre 2020 21 169 7 346 497422
Septembre 2020 30 356 15 133 325183
Août 2020 16 147 7 163 471897
Juillet 2020 16 77 2 100 345760
Juin 2020 17 60 5 127 452817
Mai 2020 7 22 3 295 321652
Avril 2020 10 47 1 189 300030
2020-04-01 1 10 0 107 11966
2020-04-02 0 2 0 114 10310
2020-04-03 0 1 0 103 9502
2020-04-04 0 2 0 128 9178
2020-04-05 0 0 0 114 10662
2020-04-06 4 7 0 109 8396
2020-04-07 0 3 0 117 8692
2020-04-08 0 0 0 104 13455
2020-04-09 0 1 0 114 10600
2020-04-10 0 0 0 112 7011
2020-04-11 0 0 0 101 8460
2020-04-12 1 2 0 120 10038
2020-04-13 0 1 0 108 11715
2020-04-14 0 1 0 107 13383
2020-04-15 0 1 0 93 9161
2020-04-16 1 2 0 99 8579
2020-04-17 0 0 0 106 6755
2020-04-18 0 2 0 96 7568
2020-04-19 0 0 0 113 5193
2020-04-20 0 0 0 189 9427
2020-04-21 0 0 0 183 10619
2020-04-22 0 1 0 157 9559
2020-04-23 1 2 0 99 9058
2020-04-24 0 5 0 99 9065
2020-04-25 0 0 0 97 8270
2020-04-26 0 0 0 94 26246
2020-04-27 0 0 1 93 9286
2020-04-28 1 2 0 100 8564
2020-04-29 1 2 0 105 9760
2020-04-30 0 0 0 120 9552
Mars 2020 24 253 3 199 467854
Février 2020 18 171 9 323 281798
Janvier 2020 29 279 48 808 474137
2020-01-01 0 12 0 120 10073
2020-01-02 1 9 0 127 13456
2020-01-03 3 8 5 120 7230
2020-01-04 1 7 2 109 7682
2020-01-05 0 6 2 116 7700
2020-01-06 2 9 1 122 10580
2020-01-07 0 2 3 120 7752
2020-01-08 1 11 3 117 8845
2020-01-09 2 13 1 115 11380
2020-01-10 0 6 1 106 9117
2020-01-11 0 9 0 188 8366
2020-01-12 3 17 3 120 9658
2020-01-13 0 10 1 268 9745
2020-01-14 2 5 3 625 12117
2020-01-15 0 1 0 587 10280
2020-01-16 0 15 2 597 12766
2020-01-17 2 17 3 575 11348
2020-01-18 0 9 2 108 11823
2020-01-19 0 8 1 132 7576
2020-01-20 0 2 0 589 7895
2020-01-21 0 4 1 808 8119
2020-01-22 4 9 0 507 11803
2020-01-23 0 1 1 383 6222
2020-01-24 1 15 1 244 6849
2020-01-25 0 2 1 110 7819
2020-01-26 2 13 2 118 38722
2020-01-27 0 6 3 116 167649
2020-01-28 2 11 3 108 7008
2020-01-29 2 13 1 114 7552
2020-01-30 0 17 0 111 7527
2020-01-31 1 12 2 106 9478
* 2019 246 3411 313 446 3308531
Décembre 2019 18 159 26 446 351248
Novembre 2019 16 245 33 325 524135
Octobre 2019 24 272 59 121 189762
Septembre 2019 25 386 54 141 376708
Août 2019 22 257 31 122 225760
Juillet 2019 24 281 62 149 190301
Juin 2019 11 171 3 112 246519
2019-06-01 0 1 0 103 2817
2019-06-02 0 1 0 97 2941
2019-06-03 0 3 0 91 6524
2019-06-04 0 14 0 87 11150
2019-06-05 0 8 0 90 9570
2019-06-06 0 5 0 99 10447
2019-06-07 1 16 1 109 8522
2019-06-08 0 5 1 93 5588
2019-06-09 0 8 0 92 4131
2019-06-10 1 8 0 93 4120
2019-06-11 1 5 1 105 29392
2019-06-12 0 4 0 102 13902
2019-06-13 0 1 0 98 5417
2019-06-14 0 5 0 104 10181
2019-06-15 0 0 0 99 11438
2019-06-16 0 4 0 93 9146
2019-06-17 1 3 0 99 7622
2019-06-18 0 0 0 104 9803
2019-06-19 2 4 0 102 8936
2019-06-20 0 2 0 106 7574
2019-06-21 0 5 0 100 7703
2019-06-22 0 6 0 103 7936
2019-06-23 0 9 0 108 6964
2019-06-24 4 13 0 102 5006
2019-06-25 0 4 0 103 3748
2019-06-26 0 6 0 112 7551
2019-06-27 0 10 0 104 6651
2019-06-28 0 10 0 93 7044
2019-06-29 0 3 0 100 8017
2019-06-30 1 8 0 102 6678
Mai 2019 23 311 10 167 218891
Avril 2019 21 294 9 174 311459
Mars 2019 22 372 16 142 344146
Février 2019 18 288 4 110 142132
Janvier 2019 22 375 6 113 187470
* 2018 338 6176 81 641 2624946
Décembre 2018 43 306 8 253 421582
Novembre 2018 26 467 9 641 383363
Octobre 2018 34 527 6 321 248725
Septembre 2018 34 641 10 127 216306
Août 2018 32 583 16 101 188648
Juillet 2018 21 386 3 104 182475
Juin 2018 31 442 3 110 213303
Mai 2018 21 422 4 107 174393
Avril 2018 25 564 5 104 159849
Mars 2018 20 634 4 96 152933
Février 2018 25 631 7 93 121912
Janvier 2018 26 573 6 94 161457
2018-01-01 1 13 0 81 3873
2018-01-02 0 35 0 86 4281
2018-01-03 0 16 0 84 4474
2018-01-04 0 12 0 88 3657
2018-01-05 0 25 0 83 5021
2018-01-06 1 14 1 84 5114
2018-01-07 3 35 0 78 5039
2018-01-08 0 12 0 91 4838
2018-01-09 2 43 1 88 5141
2018-01-10 0 18 0 87 5299
2018-01-11 0 6 0 74 2983
2018-01-12 1 12 1 15 1584
2018-01-13 4 36 0 18 1661
2018-01-14 2 33 0 27 2978
2018-01-15 0 10 0 22 2126
2018-01-16 0 19 0 18 1286
2018-01-17 0 6 0 16 1525
2018-01-18 0 13 1 77 2416
2018-01-19 0 24 0 88 4882
2018-01-20 1 10 0 83 4920
2018-01-21 0 14 0 86 5414
2018-01-22 0 15 0 88 5074
2018-01-23 0 21 0 91 4662
2018-01-24 1 8 0 17 13946
2018-01-25 0 11 0 80 24972
2018-01-26 0 13 0 91 3885
2018-01-27 2 12 2 85 6401
2018-01-28 6 32 0 92 7019
2018-01-29 1 12 0 86 5701
2018-01-30 0 20 0 94 5869
2018-01-31 1 23 0 88 5416
* 2017 346 6100 56 180 1675168
Décembre 2017 37 499 6 91 136063
Novembre 2017 37 675 6 93 169670
Octobre 2017 15 426 2 93 151449
Septembre 2017 28 548 5 94 135543
Août 2017 29 384 6 99 148097
2017-08-01 0 9 0 68 3543
2017-08-02 0 12 1 66 2932
2017-08-03 0 7 0 64 3100
2017-08-04 1 8 0 83 3375
2017-08-05 1 8 0 81 4004
2017-08-06 2 6 1 80 3731
2017-08-07 6 14 1 85 3850
2017-08-08 2 3 0 76 4998
2017-08-09 0 13 1 72 4403
2017-08-10 3 6 0 75 3696
2017-08-11 0 6 0 74 2479
2017-08-12 0 7 0 81 4043
2017-08-13 0 9 0 73 4128
2017-08-14 0 14 0 73 3594
2017-08-15 2 7 0 71 3835
2017-08-16 1 11 0 70 3779
2017-08-17 0 13 0 82 3941
2017-08-18 0 7 0 82 3689
2017-08-19 0 8 0 19 1560
2017-08-20 0 11 0 85 2353
2017-08-21 0 15 0 99 4536
2017-08-22 2 37 0 91 4987
2017-08-23 0 13 0 81 4153
2017-08-24 5 24 0 87 5297
2017-08-25 1 31 0 79 4356
2017-08-26 0 12 0 85 4846
2017-08-27 1 23 0 83 6285
2017-08-28 0 21 0 98 6070
2017-08-29 0 5 0 85 5964
2017-08-30 1 14 1 79 25924
2017-08-31 1 10 1 82 4646
Juillet 2017 25 490 5 87 176472
Juin 2017 33 603 4 89 156248
Mai 2017 26 470 2 99 181189
Avril 2017 31 490 5 180 139896
Mars 2017 27 432 3 119 90981
Février 2017 31 587 7 87 74924
Janvier 2017 27 496 5 80 114636
* 2016 389 7721 79 245 2075605
Décembre 2016 34 533 2 170 118206
Novembre 2016 34 586 6 245 122991
Octobre 2016 43 726 7 191 160217
Septembre 2016 26 657 9 85 157449
2016-09-01 0 6 0 74 4766
2016-09-02 0 11 0 20 3957
2016-09-03 2 15 0 24 5392
2016-09-04 2 24 2 27 6016
2016-09-05 1 48 0 60 6378
2016-09-06 0 19 0 64 16148
2016-09-07 0 25 0 29 5865
2016-09-08 0 8 1 28 2521
2016-09-09 2 25 2 66 4139
2016-09-10 1 13 0 57 3591
2016-09-11 0 20 0 52 3703
2016-09-12 5 46 2 56 3958
2016-09-13 2 32 0 56 4310
2016-09-14 1 36 0 57 3961
2016-09-15 0 20 0 54 3639
2016-09-16 0 8 0 85 5882
2016-09-17 1 17 1 63 4479
2016-09-18 1 37 0 55 4935
2016-09-19 1 18 0 55 4541
2016-09-20 2 43 0 53 6073
2016-09-21 0 23 0 43 3742
2016-09-22 1 18 1 53 4611
2016-09-23 0 15 0 70 4243
2016-09-24 0 18 0 70 5283
2016-09-25 2 19 0 59 15111
2016-09-26 0 12 0 62 4202
2016-09-27 1 10 0 55 4151
2016-09-28 1 28 0 55 4096
2016-09-29 0 24 0 58 3581
2016-09-30 0 19 0 55 4175
Août 2016 31 721 9 114 169873
Juillet 2016 19 513 3 58 166690
Juin 2016 30 565 5 53 211715
Mai 2016 40 1116 8 94 166514
Avril 2016 27 529 7 65 155208
Mars 2016 35 513 11 88 224056
Février 2016 35 640 4 96 192454
Janvier 2016 35 622 8 95 230232
* 2015 373 6684 79 100 1549803
Décembre 2015 28 499 7 68 140303
Novembre 2015 40 724 5 35 146607
Octobre 2015 32 760 10 84 227528
Septembre 2015 40 948 13 100 169012
Août 2015 36 566 12 61 119954
Juillet 2015 29 462 7 31 89666
Juin 2015 24 453 5 30 112317
2015-06-01 1 21 1 25 4795
2015-06-02 0 13 0 13 1648
2015-06-03 1 16 1 14 4304
2015-06-04 1 25 0 14 3105
2015-06-05 0 20 0 15 1807
2015-06-06 1 21 0 17 2532
2015-06-07 4 18 0 16 1899
2015-06-08 0 12 0 14 2343
2015-06-09 1 10 0 18 2371
2015-06-10 0 10 0 20 7902
2015-06-11 1 19 0 11 4495
2015-06-12 0 7 0 13 1558
2015-06-13 1 6 0 13 1791
2015-06-14 0 11 0 14 2048
2015-06-15 3 13 0 19 1997
2015-06-16 0 10 0 18 1599
2015-06-17 1 17 0 17 2018
2015-06-18 0 13 0 12 1641
2015-06-19 0 7 0 15 1876
2015-06-20 0 9 0 12 1521
2015-06-21 0 10 0 15 1695
2015-06-22 1 19 0 16 2896
2015-06-23 1 23 1 22 11490
2015-06-24 2 23 0 30 13135
2015-06-25 0 11 0 18 9448
2015-06-26 3 23 0 20 11127
2015-06-27 0 7 0 17 2548
2015-06-28 0 5 0 13 2651
2015-06-29 2 29 2 18 2252
2015-06-30 0 25 0 19 1825
Mai 2015 30 390 2 24 73874
Avril 2015 29 408 4 25 95371
Mars 2015 38 550 7 37 130116
Février 2015 15 434 2 24 123854
Janvier 2015 32 490 5 44 121201
* 2014 428 7364 58 58 2478164
Décembre 2014 24 360 4 33 191610
Novembre 2014 37 572 7 46 525858
Octobre 2014 45 928 8 58 364915
2014-10-01 2 17 0 19 4681
2014-10-02 1 19 0 20 4689
2014-10-03 2 14 0 14 3669
2014-10-04 0 5 0 17 3255
2014-10-05 0 1 0 19 2928
2014-10-06 0 11 0 21 3996
2014-10-07 3 25 1 20 3179
2014-10-08 2 38 0 25 5334
2014-10-09 2 52 0 23 6395
2014-10-10 4 54 1 20 5653
2014-10-11 0 14 0 27 6513
2014-10-12 4 38 0 20 4101
2014-10-13 1 60 1 23 7192
2014-10-14 1 40 1 21 5942
2014-10-15 0 50 0 19 8910
2014-10-16 4 67 1 20 7064
2014-10-17 2 59 0 24 7070
2014-10-18 0 8 0 18 8711
2014-10-19 1 18 0 14 7781
2014-10-20 3 75 2 22 5872
2014-10-21 2 43 0 21 6010
2014-10-22 1 17 0 21 7505
2014-10-23 2 34 0 20 6639
2014-10-24 0 22 0 19 8041
2014-10-25 2 16 0 24 10924
2014-10-26 0 21 0 32 24155
2014-10-27 0 16 0 41 31060
2014-10-28 2 11 1 40 35764
2014-10-29 3 46 0 58 43273
2014-10-30 1 31 0 54 39908
2014-10-31 0 6 0 53 38701
Septembre 2014 24 549 8 32 162413
2014-09-01 1 8 0 24 5910
2014-09-02 1 12 0 23 5619
2014-09-03 0 4 0 29 5993
2014-09-04 2 39 1 24 6382
2014-09-05 1 16 0 25 7071
2014-09-06 0 24 0 32 5116
2014-09-07 1 14 0 17 3343
2014-09-08 1 16 0 16 2841
2014-09-09 1 12 0 23 5898
2014-09-10 1 41 0 27 4745
2014-09-11 3 21 0 23 5234
2014-09-12 2 33 1 25 5243
2014-09-13 0 7 0 21 4951
2014-09-14 1 7 1 18 4734
2014-09-15 0 29 0 21 5744
2014-09-16 0 14 0 18 4638
2014-09-17 0 10 0 19 5146
2014-09-18 0 13 0 21 5364
2014-09-19 0 8 0 21 5709
2014-09-20 0 9 1 19 4470
2014-09-21 3 26 1 19 5891
2014-09-22 0 13 0 19 5025
2014-09-23 1 22 0 20 6398
2014-09-24 0 23 1 19 6006
2014-09-25 0 16 0 22 5732
2014-09-26 0 7 0 21 4404
2014-09-27 1 19 1 23 4732
2014-09-28 2 30 1 27 5640
2014-09-29 2 36 0 25 7160
2014-09-30 0 20 0 31 7274
Août 2014 17 251 4 27 191624
Juillet 2014 25 369 3 30 236312
Juin 2014 29 602 3 32 220918
Mai 2014 34 842 6 29 157174
Avril 2014 45 662 1 25 104486
Mars 2014 32 595 4 26 120439
Février 2014 24 660 5 28 102996
Janvier 2014 92 974 5 33 99419
* 2013 408 8887 76 89 1597727
Décembre 2013 36 785 2 79 132305
Novembre 2013 36 751 8 29 141119
Octobre 2013 37 683 10 26 116570
Septembre 2013 33 723 15 29 160779
Août 2013 20 356 4 30 113960
Juillet 2013 21 331 2 24 120164
Juin 2013 40 731 5 34 119512
Mai 2013 34 881 3 47 157484
Avril 2013 38 799 8 33 124279
Mars 2013 40 1111 9 62 147762
Février 2013 32 838 5 79 125299
Janvier 2013 41 898 5 89 138494
* 2012 446 10690 67 157 1274957
Décembre 2012 57 1411 4 45 150137
Novembre 2012 46 1137 8 25 112399
Octobre 2012 45 1068 7 25 80970
Septembre 2012 37 876 11 38 107023
Août 2012 30 595 5 41 95032
Juillet 2012 24 563 2 157 78638
Juin 2012 39 984 10 33 88620
Mai 2012 22 703 5 26 77701
Avril 2012 33 714 4 33 95151
Mars 2012 35 977 5 48 160160
Février 2012 34 704 5 33 117877
Janvier 2012 44 958 1 30 111249
* 2011 822 21877 118 48 1861895
Décembre 2011 68 1315 7 36 141929
Novembre 2011 94 1539 4 36 150015
Octobre 2011 81 1597 13 41 169207
Septembre 2011 96 1991 19 24 158540
Août 2011 68 1372 16 48 135201
Juillet 2011 57 1156 10 30 112626
Juin 2011 40 1214 6 31 149115
Mai 2011 64 1997 8 39 181997
Avril 2011 46 1637 9 38 176986
2011-04-01 3 85 0 24 5196
2011-04-02 2 26 0 25 3181
2011-04-03 1 47 0 22 3986
2011-04-04 5 87 0 23 5162
2011-04-05 3 126 0 26 5929
2011-04-06 2 86 0 30 5882
2011-04-07 2 66 0 28 5722
2011-04-08 1 43 0 24 4364
2011-04-09 0 20 0 30 5658
2011-04-10 2 18 0 23 5927
2011-04-11 1 70 0 29 6508
2011-04-12 2 92 0 16 4305
2011-04-13 0 60 0 19 3888
2011-04-14 3 58 2 36 11355
2011-04-15 1 48 0 26 8294
2011-04-16 0 22 0 24 5495
2011-04-17 0 22 0 27 5056
2011-04-18 1 49 1 38 7751
2011-04-19 0 41 0 32 8124
2011-04-20 0 29 1 28 7842
2011-04-21 2 75 2 29 7444
2011-04-22 4 72 1 33 6852
2011-04-23 2 53 0 26 6996
2011-04-24 3 39 1 32 6830
2011-04-25 1 54 0 27 5518
2011-04-26 2 61 0 30 6064
2011-04-27 1 30 0 22 4274
2011-04-28 0 71 0 28 4955
2011-04-29 0 49 0 28 4772
2011-04-30 2 38 1 24 3656
Mars 2011 54 2388 6 31 211307
Février 2011 59 2656 5 46 128248
Janvier 2011 95 3015 15 44 146724
* 2010 615 23079 70 91 1409620
Décembre 2010 54 2635 5 43 199984
Novembre 2010 59 2475 6 49 127779
Octobre 2010 56 2811 15 58 134942
Septembre 2010 53 1528 8 29 95249
Août 2010 32 1287 6 33 89617
Juillet 2010 34 1637 5 32 97290
Juin 2010 46 2137 3 28 109648
Mai 2010 50 1497 6 28 99050
Avril 2010 45 1888 3 26 102219
2010-04-01 3 88 0 18 4705
2010-04-02 1 97 1 17 5127
2010-04-03 0 48 1 16 4067
2010-04-04 0 25 0 17 3540
2010-04-05 2 54 0 15 3258
2010-04-06 0 69 0 19 3639
2010-04-07 1 67 0 19 3590
2010-04-08 5 109 0 25 4043
2010-04-09 2 117 0 22 4430
2010-04-10 0 44 0 17 2821
2010-04-11 2 71 0 18 3408
2010-04-12 2 101 0 21 4509
2010-04-13 1 64 0 16 3272
2010-04-14 2 56 0 19 3587
2010-04-15 2 42 1 20 3071
2010-04-16 2 48 0 18 3184
2010-04-17 0 37 0 17 2301
2010-04-18 0 20 0 17 2342
2010-04-19 1 45 0 22 3138
2010-04-20 2 70 0 18 3550
2010-04-21 1 33 0 16 2917
2010-04-22 2 70 0 26 3255
2010-04-23 0 60 0 22 3359
2010-04-24 4 34 0 16 2265
2010-04-25 4 71 0 18 2831
2010-04-26 1 105 0 23 3707
2010-04-27 3 68 0 19 2863
2010-04-28 0 43 0 20 3119
2010-04-29 0 61 0 16 3058
2010-04-30 2 71 0 15 3263
Mars 2010 53 1534 2 46 118201
Février 2010 65 1574 4 91 117274
Janvier 2010 68 2076 7 43 118367
* 2009 752 28223 96 159 970278
Décembre 2009 39 2001 5 54 122418
Novembre 2009 59 3138 6 38 117432
Octobre 2009 67 3218 11 18 122232
Septembre 2009 73 2730 14 159 92082
2009-09-01 4 68 1 15 2626
2009-09-02 0 56 0 12 2372
2009-09-03 2 195 2 15 3946
2009-09-04 2 190 0 12 4086
2009-09-05 1 48 1 10 2054
2009-09-06 4 66 0 9 2505
2009-09-07 2 88 0 12 2827
2009-09-08 1 58 0 14 2613
2009-09-09 3 77 2 159 4703
2009-09-10 0 114 0 14 3743
2009-09-11 1 74 0 12 3640
2009-09-12 2 56 0 10 2609
2009-09-13 3 93 0 10 3245
2009-09-14 1 193 1 14 5003
2009-09-15 4 138 1 12 3518
2009-09-16 1 122 0 13 3210
2009-09-17 4 86 2 11 2944
2009-09-18 2 98 0 11 2944
2009-09-19 5 104 2 11 2638
2009-09-20 5 97 0 15 2994
2009-09-21 3 77 0 12 2877
2009-09-22 3 56 0 0 2425
2009-09-23 2 72 0 13 2559
2009-09-24 1 96 0 12 2902
2009-09-25 1 54 0 11 2059
2009-09-26 1 35 0 9 2795
2009-09-27 2 49 0 13 2487
2009-09-28 5 85 0 10 2564
2009-09-29 6 92 0 27 4187
2009-09-30 2 93 2 12 3007
Août 2009 47 1405 8 15 61919
Juillet 2009 68 1737 11 21 67267
Juin 2009 63 2759 4 37 72789
Mai 2009 46 2166 6 16 66386
2009-05-01 1 129 0 10 2835
2009-05-02 1 42 1 14 1469
2009-05-03 0 68 0 13 1801
2009-05-04 3 101 1 16 2844
2009-05-05 2 74 1 13 2433
2009-05-06 4 156 0 15 3705
2009-05-07 1 47 0 12 1946
2009-05-08 1 54 1 9 1538
2009-05-09 2 46 0 10 1306
2009-05-10 2 58 0 12 1788
2009-05-11 0 77 0 13 2263
2009-05-12 1 49 1 11 2134
2009-05-13 0 31 0 11 1993
2009-05-14 0 65 0 12 2003
2009-05-15 0 75 0 11 2324
2009-05-16 2 36 0 8 1545
2009-05-17 1 52 1 13 2284
2009-05-18 0 40 0 11 2729
2009-05-19 1 60 0 11 2402
2009-05-20 0 90 0 10 2220
2009-05-21 5 54 0 10 1843
2009-05-22 0 36 0 10 1520
2009-05-23 0 38 0 8 1804
2009-05-24 5 74 0 10 2169
2009-05-25 6 80 0 13 2515
2009-05-26 1 105 0 13 2637
2009-05-27 4 128 0 14 3088
2009-05-28 0 85 0 9 1806
2009-05-29 0 82 0 11 2137
2009-05-30 0 48 0 8 1394
2009-05-31 3 86 0 13 1911
Avril 2009 101 2850 6 16 73303
Mars 2009 80 3538 7 17 83610
Février 2009 57 1586 6 16 50521
2009-02-01 3 79 0 10 1938
2009-02-02 2 66 0 11 2491
2009-02-03 2 62 1 13 2112
2009-02-04 2 48 0 12 1911
2009-02-05 1 54 0 10 1840
2009-02-06 0 42 1 9 1456
2009-02-07 1 13 0 6 1032
2009-02-08 5 69 1 9 1650
2009-02-09 3 48 0 10 1590
2009-02-10 2 56 0 8 1453
2009-02-11 1 38 1 9 1697
2009-02-12 2 30 0 8 1354
2009-02-13 3 52 1 12 1429
2009-02-14 1 29 0 11 988
2009-02-15 2 41 0 8 1595
2009-02-16 2 62 0 10 2271
2009-02-17 1 44 0 10 1926
2009-02-18 1 62 0 10 2139
2009-02-19 5 89 0 12 2304
2009-02-20 1 66 0 12 2066
2009-02-21 0 41 0 9 1177
2009-02-22 6 58 0 11 1838
2009-02-23 2 67 0 10 1907
2009-02-24 1 64 0 12 2219
2009-02-25 1 85 0 16 2446
2009-02-26 2 76 0 12 2117
2009-02-27 1 82 0 11 2035
2009-02-28 4 63 1 10 1540
Janvier 2009 52 1095 12 10 40319
* 2008 334 4655 56 26 234055
Décembre 2008 36 663 7 12 28104
Novembre 2008 51 1090 9 10 35948
Octobre 2008 50 609 5 10 26582
Septembre 2008 40 619 5 10 24365
2008-09-01 0 6 0 7 539
2008-09-02 2 16 0 0 576
2008-09-03 1 13 0 5 857
2008-09-04 1 9 0 6 627
2008-09-05 1 15 0 7 829
2008-09-06 1 7 0 6 671
2008-09-07 1 17 0 4 1181
2008-09-08 5 29 0 6 1459
2008-09-09 0 2 0 5 741
2008-09-10 1 9 0 5 540
2008-09-11 0 7 0 6 574
2008-09-12 2 27 0 7 779
2008-09-13 0 11 0 6 602
2008-09-14 0 5 0 6 478
2008-09-15 6 28 1 6 990
2008-09-16 1 15 0 6 639
2008-09-17 0 26 1 7 1061
2008-09-18 1 14 0 6 720
2008-09-19 1 16 0 6 620
2008-09-20 0 9 0 5 403
2008-09-21 2 17 2 6 630
2008-09-22 0 32 0 7 887
2008-09-23 1 22 0 10 697
2008-09-24 3 54 0 10 1244
2008-09-25 3 27 0 7 873
2008-09-26 1 23 0 6 770
2008-09-27 0 21 0 8 670
2008-09-28 2 35 0 7 911
2008-09-29 2 57 0 6 1560
2008-09-30 2 50 1 9 1237
Août 2008 28 252 6 9 21916
Juillet 2008 20 256 5 7 16733
Juin 2008 17 363 6 26 18903
Mai 2008 17 180 2 10 13320
Avril 2008 16 146 3 8 16063
Mars 2008 18 158 1 9 12835
Février 2008 19 155 2 9 9679
Janvier 2008 22 164 5 7 9607
* 2007 276 2246 55 9 102999
Décembre 2007 21 167 5 8 17081
Novembre 2007 20 168 3 6 8467
Octobre 2007 21 147 4 5 8193
Septembre 2007 22 183 4 9 9896
Août 2007 23 226 2 6 9096
Juillet 2007 18 127 1 4 10165
Juin 2007 25 309 2 6 13196
Mai 2007 30 315 8 7 11830
Avril 2007 44 428 13 9 13382
Mars 2007 52 176 13 4 1693